Terminal Aerodrome Forecast
Issued by NWS

Home | Current Version | Previous Version | Text Only | Print | Product List | Glossary On
Versions: 1 2 3 4 5 6 7 8 9 10 11 12 13 14 15 16 17 18 19 20 21 22 23
071
FTAK31 PAJN 200530
TAFASI
TAF
PASI 200530Z 2006/2106 17009KT P6SM VCSH SCT025 BKN040
      TEMPO 2006/2010 -SHRA BKN025 OVC040=

USA.gov is the U.S. government's official web portal to all federal, state and local government web resources and services.